Regional Weather Roundup
Issued by NWS

Home | Current Version | Previous Version | Text Only | Print | Product List | Glossary Off
Versions: 1 2 3 4 5 6 7 8 9 10 11 12 13 14 15 16 17 18 19 20 21 22 23 24 25 26 27 28 29 30 31 32 33 34 35 36 37 38 39 40 41 42 43 44 45 46 47 48 49 50

000
ASUS43 KLMK 310110
RWRKY
KENTUCKY REGIONAL WEATHER ROUNDUP
NATIONAL WEATHER SERVICE LOUISVILLE KY
800 PM EST FRI JAN 30 2015

NOTE "FAIR" INDICATES FEW OR NO CLOUDS BELOW 12,000 FEET
WITH NO SIGNIFICANT WEATHER AND/OR OBSTRUCTIONS TO VISIBILITY.

KYZ001>023-026-027-061>063-070>075-310200-
WESTERN AND SOUTH CENTRAL KENTUCKY

CITY           SKY/WX    TMP DP  RH WIND       PRES   REMARKS
PADUCAH        CLEAR     31  20  63 CALM      30.46R
HENDERSON      CLEAR     27  19  74 CALM      30.47S
OWENSBORO      CLEAR     33  23  67 CALM      30.48R
HOPKINSVILLE   CLEAR     33  21  61 N3        30.45R
BOWLING GREEN  CLEAR     37  19  48 NW3       30.45S
GLASGOW        CLEAR     30  21  67 CALM      30.44S
$$

KYZ024-025-028>034-038-045-046-053-310200-
NORTH CENTRAL KENTUCKY

CITY           SKY/WX    TMP DP  RH WIND       PRES   REMARKS
LOUISVILLE/SDF MOCLDY    32  15  49 NE3       30.46S
LOUISVILLE/LOU CLEAR     32  15  49 CALM      30.46S
FORT KNOX      CLEAR     28  17  61 N6        30.44R WCI  22
$$

KYZ035>037-039>044-047>052-055>060-089>105-310200-
NORTHEAST KENTUCKY

CITY           SKY/WX    TMP DP  RH WIND       PRES   REMARKS
LEXINGTON      CLEAR     27  14  58 N5        30.44R WCI  22
COVINGTON      PTCLDY    24  14  65 CALM      30.45R
FRANKFORT      CLEAR     27  14  58 N3        30.45R
$$

KYZ054-064>069-076>088-106>120-310200-
SOUTHEAST KENTUCKY

CITY           SKY/WX    TMP DP  RH WIND       PRES   REMARKS
JACKSON        CLEAR     26  13  57 CALM      30.41R
LONDON         CLEAR     30  12  47 NW3       30.41S
SOMERSET       CLEAR     32  16  51 CALM      30.45S
MIDDLESBORO    CLEAR     29  19  67 N5        30.41R WCI  24
MONTICELLO     CLEAR     30  19  63 N8        30.45S WCI  22
$$



USA.gov is the U.S. government's official web portal to all federal, state and local government web resources and services.